Location: Milevsko
(49.4500°N, 14.3670°E)
Time: 00:37:11
(UTC+01:00)

ISS - Pass Details

Date: 14 July 2018
Orbit: 401 x 408 km, 51.6° (Epoch: 20 November)

Event Time Altitude Azimuth Distance (km) Brightness Sun altitude
Rises 04:18:10 0° 281° (W) 2,356 -0.3 -7.3°
Reaches altitude 10° 04:20:17 10° 285° (WNW) 1,495 -1.2 -7.1°
Maximum altitude 04:23:36 60° 6° (N) 485 -3.1 -6.7°
Drops below altitude 10° 04:26:56 10° 88° (E) 1,499 -0.2 -6.3°
Sets 04:29:03 0° 92° (E) 2,362 0.8 -6.1°
